Inquirer Daily News

Weather

Get conditions and forecasts for any City, State, ZIP code or Country:  
Trenton, NJ
on Saturday, November 24, 2012

Saturday
Previous Day Next Day
Daily Summary
 ActualAverageRecord
Temperature
Mean Temperature °F 43°F  
Max Temperature 50°F 51°F 71°F (1979)
Min Temperature 36°F 35°F 16°F (1989)
Degree Days
Heating Degree Days 22 22  
Month to date heating degree days 522 440  
Since 1 July heating degree days 829 837  
Cooling Degree Days 0 0  
Month to date cooling degree days 0 0  
Year to date cooling degree days 1234 965  
Moisture
Dew Point 22°F   
Average Humidity 53    
Maximum Humidity 66    
Minimum Humidity 39    
Precipitation
Precipitation 0.00 in 0.11 in 2.10 in (1901)
Month to date precipitation 0.58 2.53  
Year to date precipitation 32.63 41.96  
Wind
Wind Speed 13 mph   
Max Wind Speed 24 mph   
Max Gust Speed 33 mph   
Visibility 10 miles   
Events     

Key: T is trace of precipitation, MM is missing value
Source: NWS Daily Summary
Time(EST)TemperatureDew PointHumidity Pressure Visibility Wind DirectionWind SpeedGust SpeedPrecipitationEvents Conditions
12:53 AM 48.9°F 32.0°F 52% 29.70 in 10.0 miles NW 13.8 mph 20.7 mph N/A   Mostly Cloudy
1:53 AM 44.1°F 26.1°F 49% 29.72 in 10.0 miles NW 17.3 mph 27.6 mph N/A   Overcast
2:53 AM 42.1°F 21.0°F 43% 29.74 in 10.0 miles NW 18.4 mph 29.9 mph N/A   Partly Cloudy
3:53 AM 39.0°F 21.9°F 50% 29.75 in 10.0 miles NW 13.8 mph 24.2 mph N/A   Clear
4:53 AM 37.9°F 21.9°F 53% 29.76 in 10.0 miles NW 9.2 mph 19.6 mph N/A   Clear
5:53 AM 37.0°F 21.0°F 52% 29.77 in 10.0 miles NW 13.8 mph 20.7 mph N/A   Clear
6:53 AM 37.0°F 21.0°F 52% 29.79 in 10.0 miles NW 8.1 mph - N/A   Clear
7:53 AM 37.9°F 21.9°F 53% 29.80 in 10.0 miles NW 13.8 mph - N/A   Clear
8:53 AM 39.9°F 21.9°F 49% 29.81 in 10.0 miles NW 16.1 mph 24.2 mph N/A   Clear
9:53 AM 41.0°F 21.9°F 47% 29.81 in 10.0 miles NW 13.8 mph 23.0 mph N/A   Scattered Clouds
10:53 AM 41.0°F 21.0°F 45% 29.80 in 10.0 miles NW 12.7 mph 20.7 mph N/A   Mostly Cloudy
11:53 AM 41.0°F 19.9°F 43% 29.78 in 10.0 miles NW 17.3 mph 26.5 mph N/A   Overcast
12:53 PM 41.0°F 19.9°F 43% 29.77 in 10.0 miles NNW 15.0 mph 25.3 mph N/A   Overcast
1:53 PM 41.0°F 19.9°F 43% 29.77 in 10.0 miles NW 11.5 mph 24.2 mph N/A   Overcast
2:53 PM 43.0°F 19.9°F 40% 29.76 in 10.0 miles NW 16.1 mph 33.4 mph N/A   Overcast
3:53 PM 42.1°F 19.0°F 40% 29.77 in 10.0 miles NW 19.6 mph 25.3 mph N/A   Overcast
4:53 PM 39.0°F 24.1°F 55% 29.80 in 10.0 miles North 11.5 mph 18.4 mph N/A   Overcast
5:53 PM 39.0°F 23.0°F 53% 29.83 in 10.0 miles NW 11.5 mph 20.7 mph N/A   Overcast
6:53 PM 37.9°F 21.9°F 53% 29.84 in 10.0 miles NW 10.4 mph 18.4 mph N/A   Overcast
7:53 PM 37.9°F 21.9°F 53% 29.84 in 10.0 miles NW 9.2 mph 17.3 mph N/A   Overcast
8:53 PM 37.0°F 21.9°F 54% 29.86 in 10.0 miles WNW 10.4 mph - N/A   Scattered Clouds
9:53 PM 37.0°F 21.9°F 54% 29.87 in 10.0 miles NW 10.4 mph 23.0 mph N/A   Overcast
10:53 PM 37.0°F 21.9°F 54% 29.88 in 10.0 miles NW 9.2 mph - N/A   Mostly Cloudy
11:53 PM 37.0°F 21.0°F 52% 29.88 in 10.0 miles Variable 6.9 mph - N/A   Overcast
Astronomy
Sunrise:06:55 AM (EST) Moon Rise:02:19 PM (EST)
Sunset:04:36 PM (EST) Moon Set:03:09 AM (EST)
Moon Phase
Nov. 24 Nov. 28 Dec. 06 Dec. 13 Dec. 20

Copyright © 2014 The Weather Underground, Inc.